SCP
3 3 3 3 3 2 2 3 3 3 2 2 2 2 3 4 5 6 5 3 2 1 0 0 0 0 0 0 1 1 1 1 1 1 2 2 2 2
3 3 3 3 3 3 3 4 4 3 3 3 3 4 5 6 7 8 6 3 2 1 0 0 0 0 0 0 0 0 0 1 1 1 1 2 2 2
3 3 3 4 4 4 5 5 5 5 5 5 5 6 8 9 10 10 7 4 2 1 1 1 0 0 0 0 0 0 0 0 1 1 1 1 2 2
3 3 3 4 4 4 5 5 5 6 6 6 7 9 11 12 12 10 6 3 2 1 1 1 1 0 0 0 0 0 0 0 0 0 1 1 1 1
4 4 4 5 5 5 5 5 5 6 7 7 8 10 11 11 9 7 5 3 2 1 1 1 1 1 0 0 0 0 0 0 0 0 0 1 1 1
5 5 5 5 6 6 6 6 6 6 7 7 8 9 9 8 7 5 4 3 2 2 1 1 1 1 1 0 0 0 0 0 0 0 0 0 0 0
5 5 5 5 5 5 5 6 7 7 8 7 8 8 8 7 6 5 4 4 3 2 2 1 1 1 1 1 1 0 0 0 0 0 0 0 0 0
5 5 5 5 4 4 3 3 4 6 7 8 8 9 9 8 7 6 5 4 4 3 3 2 2 2 2 1 1 1 0 0 0 0 0 0 0 0
6 6 6 6 5 4 4 3 4 4 5 7 9 9 10 10 9 8 7 7 6 5 5 4 3 2 2 1 1 0 0 0 0 0 0 0 0 0
7 7 6 6 5 4 4 5 5 5 5 5 6 7 7 8 8 8 8 8 7 6 6 5 3 2 2 2 1 0 0 0 0 0 0 0 0 0
8 7 6 5 5 4 4 5 6 6 5 4 4 4 4 4 5 6 7 7 6 6 6 6 4 3 3 2 1 1 0 0 0 0 0 0 0 0
7 6 5 4 3 3 3 4 4 5 5 4 3 3 3 3 3 4 5 5 5 6 6 7 6 5 4 3 3 2 1 1 1 0 0 0 0 0
6 5 4 3 2 1 2 3 3 4 5 5 4 3 4 4 4 4 4 5 5 6 7 7 8 7 6 6 6 6 4 2 1 1 1 0 0 0
5 5 3 1 0 0 1 1 2 3 4 5 4 3 3 4 5 5 6 5 5 5 6 7 8 8 8 9 10 9 6 4 3 3 3 2 1 1
5 4 2 1 0 0 1 1 1 3 4 4 3 3 3 4 5 6 7 6 5 5 5 6 6 7 7 8 9 8 6 4 3 4 4 4 3 3
3 3 2 1 1 2 2 1 2 3 3 3 3 3 4 4 5 5 6 6 5 4 4 5 6 7 7 7 7 6 5 4 5 6 6 6 5 4
2 3 3 3 3 4 4 4 3 3 3 3 3 3 3 4 4 5 5 6 5 4 4 6 7 9 9 8 7 6 5 6 7 8 8 7 5 4
2 3 4 4 5 5 5 5 4 4 3 3 3 3 3 4 4 5 6 6 6 5 5 6 8 9 10 9 8 7 6 7 8 8 8 6 4 3
2 3 4 4 4 5 5 5 4 4 4 4 4 4 4 4 5 5 6 6 7 7 6 6 7 8 8 9 8 6 5 6 6 6 5 4 2 2
2 3 4 4 5 5 5 5 5 5 5 5 5 5 5 5 6 6 7 7 8 8 7 7 6 6 7 9 9 6 4 4 4 3 2 2 2 1
3 3 4 4 5 6 6 6 6 6 6 6 6 6 6 6 6 7 7 8 8 8 8 7 6 6 7 9 8 7 4 2 2 2 1 1 1 1
3 3 4 4 5 6 6 7 7 7 7 8 8 9 8 8 8 8 8 9 9 9 8 7 7 8 8 7 6 5 3 1 1 1 1 1 1 1
3 4 3 3 4 5 6 7 7 8 8 9 10 11 11 10 9 9 9 10 10 10 9 8 8 8 8 6 4 3 2 1 1 0 0 0 0 0
Wind_Speed
5 5 5 4 4 4 4 4 5 6 5 2 2 2 2 2 1 4 3 4 5 6 6 6 5 5 4 4 4 4 5 6 6 6 6 6 6 7
4 5 5 5 4 4 4 4 4 5 6 3 3 2 2 3 3 4 4 5 6 7 7 7 6 6 6 5 5 5 5 5 6 7 7 7 6 7
5 5 5 5 5 5 4 4 5 5 6 5 3 2 3 5 3 4 5 5 4 8 7 7 7 6 6 6 6 6 6 6 6 7 7 7 7 7
6 6 6 5 5 6 5 5 5 5 6 6 5 4 4 5 4 6 5 4 4 6 8 7 7 7 7 7 6 7 6 6 6 6 6 7 7 8
6 6 6 6 6 5 6 6 5 5 5 6 6 4 4 3 5 5 5 4 5 5 8 9 8 7 7 7 6 6 6 6 6 6 6 6 7 7
6 7 7 7 7 7 6 6 6 6 6 6 5 5 4 3 4 4 4 4 4 4 3 4 7 9 9 8 8 7 6 6 6 6 6 7 7 7
7 7 7 6 6 6 6 5 6 6 6 6 5 5 4 3 4 4 5 4 4 4 4 4 5 6 7 9 9 8 7 7 7 7 7 7 7 7
8 8 7 7 7 8 8 8 8 8 7 7 6 5 5 5 4 5 5 5 5 3 4 5 4 5 4 4 6 8 8 8 7 7 7 7 7 7
7 7 7 5 6 7 7 9 10 10 10 9 8 7 6 5 5 7 5 6 6 3 4 6 4 5 5 3 7 8 8 8 8 8 8 8 8 8
7 7 7 6 5 6 7 7 8 8 9 9 8 8 7 5 5 7 7 7 7 5 5 6 5 5 5 4 8 9 9 9 9 9 8 8 8 7
7 6 7 7 3 4 7 8 8 7 7 8 8 7 6 6 6 6 6 6 6 5 4 6 5 5 5 5 5 10 10 10 10 9 9 8 8 7
5 6 4 5 2 4 7 8 8 7 6 5 6 8 9 9 10 8 7 7 6 5 3 4 5 5 5 4 4 5 6 8 10 10 9 9 8 6
5 5 3 2 2 5 8 8 7 7 7 7 6 6 6 6 6 7 6 6 7 6 3 4 5 5 6 5 4 4 4 4 5 6 8 9 9 8
6 5 2 1 4 6 6 5 5 7 6 6 5 5 5 5 4 5 6 7 6 7 5 5 5 5 6 6 5 3 3 4 4 4 4 6 9 9
5 4 3 4 5 6 6 6 6 6 5 5 6 5 4 4 4 4 5 6 7 7 6 6 7 6 6 7 6 5 4 4 4 4 4 4 4 5
5 3 5 6 6 5 5 5 5 5 5 5 5 5 4 3 4 4 4 4 5 5 5 6 6 7 7 7 6 6 5 4 4 4 4 4 4 4
5 5 5 4 4 4 4 4 4 4 4 5 5 5 4 4 4 3 3 4 5 5 4 4 5 6 7 7 6 6 5 4 4 3 3 4 3 3
6 6 5 5 4 4 4 4 4 4 4 4 5 5 4 4 4 4 4 4 5 5 5 4 4 4 5 5 6 6 5 4 3 3 4 4 4 3
6 6 5 5 4 4 4 4 4 3 4 5 4 5 5 5 5 5 5 5 6 6 5 4 4 5 6 6 3 4 4 4 3 3 4 4 4 3
6 6 5 5 4 4 4 4 4 4 4 5 5 5 5 6 6 6 5 6 6 6 5 5 5 5 6 6 4 3 4 4 4 3 3 2 2 1
5 5 5 5 4 4 4 4 4 5 5 5 5 5 5 6 6 6 6 5 6 6 6 5 3 4 5 5 5 3 2 3 2 3 3 3 3 3
5 5 5 5 5 4 4 4 5 5 5 5 5 5 5 6 7 7 7 6 5 5 6 5 3 4 5 5 5 4 3 1 2 3 3 3 3 3
5 5 5 5 5 5 4 5 6 5 5 5 5 5 6 6 6 6 6 6 5 5 5 5 4 3 4 5 4 4 4 3 2 2 2 2 2 2
Wind_Direction
260 253 262 270 266 271 269 271 281 291 291 270 265 258 261 267 240 256 258 185 206 222 229 236 239 239 239 240 238 239 235 228 223 220 222 228 231 235
264 274 273 269 270 265 264 264 268 277 285 294 282 276 292 279 215 253 257 189 212 218 223 230 233 233 234 232 231 236 236 230 225 220 218 222 227 233
262 259 263 276 276 272 264 263 262 267 274 282 277 266 262 270 264 262 254 245 215 200 211 221 228 232 233 232 230 229 230 228 224 223 220 220 221 225
263 265 266 262 261 270 271 265 265 266 269 281 282 267 253 252 254 259 257 250 253 182 197 212 222 229 228 227 225 225 225 225 225 227 226 224 225 227
264 264 265 265 263 265 267 269 268 263 264 267 269 271 265 259 259 255 258 265 261 197 197 206 214 221 220 218 217 219 223 225 224 224 227 228 230 233
265 266 265 262 263 264 261 262 268 272 266 265 267 265 257 251 255 260 256 240 257 252 228 214 204 208 212 210 210 214 219 225 228 228 228 228 229 232
265 265 263 269 282 277 279 275 270 267 267 265 264 264 261 254 254 258 264 259 250 255 258 242 221 223 207 205 209 211 216 222 227 230 230 229 228 229
266 266 261 245 243 242 258 269 271 267 271 271 266 267 263 258 262 265 267 264 263 239 264 262 252 248 238 230 183 194 211 219 225 230 231 229 227 227
266 267 266 259 250 254 239 237 245 249 253 262 268 267 263 256 260 258 258 266 272 270 262 268 257 253 249 218 176 194 210 219 223 226 226 226 225 224
264 263 266 269 267 276 273 262 256 245 241 242 252 257 262 267 254 259 268 257 251 246 250 263 264 261 258 234 180 194 207 216 221 224 225 225 222 220
266 263 263 264 278 291 274 268 266 261 242 240 252 257 263 255 257 260 256 255 256 244 228 257 265 267 259 242 199 195 206 212 217 219 219 219 218 219
259 257 252 263 266 269 269 269 267 271 275 249 234 238 243 236 226 238 251 256 263 258 226 244 262 269 263 247 237 211 215 211 212 214 212 210 208 222
269 265 257 163 245 260 269 270 274 283 275 267 257 249 244 242 232 230 241 253 260 259 249 238 260 262 262 266 258 245 235 234 221 216 210 206 205 217
272 273 278 179 252 259 259 265 269 270 263 260 258 256 255 252 249 243 238 247 260 269 272 263 267 267 271 271 272 262 251 245 236 235 230 197 205 215
280 317 310 250 247 243 240 244 247 251 257 261 263 262 260 261 261 249 239 237 244 248 250 251 259 264 263 268 269 267 268 261 239 238 237 228 219 212
263 250 231 238 249 268 249 237 248 261 265 263 265 266 262 250 245 255 255 248 248 241 230 238 251 261 261 265 266 267 264 255 248 246 250 245 232 226
263 254 250 244 248 255 260 258 258 253 251 262 265 262 260 255 250 253 265 262 256 259 253 234 238 247 255 261 263 264 262 256 250 243 239 245 243 232
254 254 257 257 256 259 262 259 256 260 259 253 256 258 257 257 256 255 254 257 263 264 264 262 258 258 260 252 243 257 264 268 263 238 240 242 244 235
245 257 261 259 260 258 258 263 264 265 269 263 257 258 260 258 255 252 251 254 258 261 263 265 260 255 257 265 241 223 255 267 266 253 243 248 253 244
251 257 259 258 260 264 265 270 274 271 262 262 261 260 261 261 259 257 253 257 261 262 261 257 255 256 261 274 282 271 231 252 258 253 246 256 265 219
255 260 261 261 262 263 265 266 269 270 270 268 264 264 264 265 264 262 260 249 255 263 264 262 257 246 264 265 258 257 254 202 242 263 252 243 241 234
261 263 264 266 263 261 259 261 262 265 267 266 267 264 263 264 265 265 267 261 254 257 266 270 253 238 248 251 256 256 260 213 190 211 241 254 259 244
266 265 261 260 260 260 256 255 261 264 266 271 274 273 273 272 273 269 265 264 262 262 263 265 261 252 253 248 246 242 237 235 219 212 218 204 205 197